Tracking 28356 objects as of 7-Dec-2023
HD Live streaming from Space Station
objects crossing your sky now

TITAN 4B CENTAUR R/B

Track TITAN 4B CENTAUR R/B now!
10-day predictions


NORAD ID: 25725
Int'l Code: 1999-023B
Perigee: 714.0 km
Apogee: 5,152.5 km
Inclination: 28.3 °
Period: 148.9 minutes
Semi major axis: 9304 km
RCS: Unknown
Launch date: April 30, 1999
Source: United States (US)
Launch site: AIR FORCE EASTERN TEST RANGE (AFETR)

Note: This is a ROCKET BODY
Your satellite tracking list
Your tracking list is empty




NASA's NSSDC Master Catalog

Two Line Element Set (TLE):
1 25725U 99023B   23340.51228565  .00000006  00000-0 -27785-4 0  9990
2 25725  28.3201  24.6676 2385179  93.1499 294.1934  9.67338055167530
Source of the keplerian elements: McCants